WZZ57SC ENGM-EPSC

Flight info

Callsign WZZ57SC
Flight time 1h 5m
Altitude 37000
Route OKSAT L996 KELIN DCT POKEN DCT OBDEJ
Aircraft A321/M-SDE1E2E3FGIJ1J4RWXY/LB1

Departure

Time 2026-05-07 14:51
Airport Oslo-Gardermoen International Airport (ENGM)

Arrival

Time 2026-05-07 15:57
Airport Solidarity Szczecin–Goleniów Airport (EPSC)
Time Latitude Longitude Altitude Speed Heading
2026-05-07 14:16 60.19718 11.10250 685 ft 0 kts 286°
2026-05-07 14:17 60.19796 11.10037 682 ft 0 kts 106°
2026-05-07 14:17 60.19758 11.10261 681 ft 0 kts 286°
2026-05-07 14:40 60.19755 11.10287 682 ft 4 kts 287°
2026-05-07 14:41 60.19746 11.10339 679 ft 4 kts 290°
2026-05-07 14:41 60.19736 11.10389 682 ft 4 kts 296°
2026-05-07 14:41 60.19723 11.10436 677 ft 4 kts 309°
2026-05-07 14:41 60.19705 11.10466 682 ft 4 kts 358°
2026-05-07 14:42 60.19698 11.10467 683 ft 0 kts 16°
2026-05-07 14:44 60.19701 11.10468 682 ft 2 kts 16°
2026-05-07 14:44 60.19725 11.10482 682 ft 5 kts 16°
2026-05-07 14:45 60.19753 11.10498 684 ft 5 kts 16°
2026-05-07 14:45 60.19803 11.10527 682 ft 10 kts 16°
2026-05-07 14:45 60.19873 11.10567 684 ft 9 kts 16°
2026-05-07 14:45 60.19937 11.10600 684 ft 11 kts
2026-05-07 14:46 60.19973 11.10501 685 ft 10 kts 288°
2026-05-07 14:46 60.19997 11.10355 683 ft 12 kts 288°
2026-05-07 14:46 60.20022 11.10182 686 ft 14 kts 285°
2026-05-07 14:46 60.20050 11.09980 685 ft 16 kts 286°
2026-05-07 14:47 60.20085 11.09740 680 ft 19 kts 286°
2026-05-07 14:47 60.20125 11.09464 682 ft 22 kts 285°
2026-05-07 14:47 60.20168 11.09155 680 ft 24 kts 285°
2026-05-07 14:47 60.20208 11.08899 681 ft 14 kts 288°
2026-05-07 14:48 60.20227 11.08774 680 ft 5 kts 286°
2026-05-07 14:48 60.20233 11.08734 680 ft 4 kts 286°
2026-05-07 14:48 60.20242 11.08671 678 ft 0 kts 286°
2026-05-07 14:49 60.20244 11.08658 678 ft 4 kts 286°
2026-05-07 14:49 60.20256 11.08574 677 ft 8 kts 286°
2026-05-07 14:49 60.20275 11.08444 677 ft 10 kts 286°
2026-05-07 14:50 60.20256 11.08389 677 ft 5 kts 206°
2026-05-07 14:50 60.20241 11.08380 673 ft 2 kts 198°
2026-05-07 14:50 60.20221 11.08367 677 ft 11 kts 197°
2026-05-07 14:50 60.19884 11.08172 675 ft 90 kts 196°
2026-05-07 14:51 60.19054 11.07692 672 ft 156 kts 196°
2026-05-07 14:51 60.17949 11.07090 1296 ft 162 kts 196°
2026-05-07 14:51 60.16858 11.06518 2156 ft 161 kts 196°
2026-05-07 14:51 60.15768 11.05975 2816 ft 163 kts 187°
2026-05-07 14:52 60.14657 11.06387 3478 ft 167 kts 150°
2026-05-07 14:52 60.13691 11.07716 4095 ft 173 kts 145°
2026-05-07 14:52 60.12655 11.09241 4437 ft 196 kts 144°
2026-05-07 14:52 60.11495 11.10938 4756 ft 217 kts 144°
2026-05-07 14:53 60.10206 11.12812 4980 ft 242 kts 144°
2026-05-07 14:53 60.08773 11.14895 5382 ft 264 kts 145°
2026-05-07 14:53 60.07265 11.17077 6133 ft 271 kts 145°
2026-05-07 14:53 60.05728 11.19301 6976 ft 274 kts 145°
2026-05-07 14:54 60.04173 11.21545 7748 ft 278 kts 145°
2026-05-07 14:54 60.02590 11.23837 8546 ft 283 kts 145°
2026-05-07 14:54 60.00975 11.26160 9329 ft 289 kts 146°
2026-05-07 14:54 59.99328 11.28516 10089 ft 294 kts 146°
2026-05-07 14:55 59.97616 11.30964 10428 ft 314 kts 146°
2026-05-07 14:55 59.95775 11.33593 10615 ft 336 kts 146°
2026-05-07 14:55 59.93845 11.36360 11103 ft 345 kts 146°
2026-05-07 14:55 59.91882 11.39170 11750 ft 349 kts 146°
2026-05-07 14:56 59.89893 11.41994 12441 ft 353 kts 147°
2026-05-07 14:56 59.87887 11.44854 13121 ft 357 kts 147°
2026-05-07 14:56 59.85860 11.47745 13803 ft 360 kts 147°
2026-05-07 14:56 59.83808 11.50647 14401 ft 364 kts 147°
2026-05-07 14:57 59.81734 11.53596 14974 ft 368 kts 147°
2026-05-07 14:57 59.79629 11.56559 15554 ft 373 kts 148°
2026-05-07 14:57 59.77505 11.59560 16121 ft 378 kts 148°
2026-05-07 14:57 59.75354 11.62608 16695 ft 382 kts 148°
2026-05-07 14:58 59.73173 11.65671 17267 ft 386 kts 148°
2026-05-07 14:58 59.70966 11.68765 17841 ft 391 kts 149°
2026-05-07 14:58 59.68757 11.71848 18379 ft 396 kts 149°
2026-05-07 14:58 59.66497 11.75010 18880 ft 400 kts 149°
2026-05-07 14:59 59.64107 11.77974 19334 ft 399 kts 160°
2026-05-07 14:59 59.61538 11.79743 19846 ft 396 kts 169°
2026-05-07 14:59 59.58872 11.81218 20371 ft 400 kts 169°
2026-05-07 14:59 59.56182 11.82713 20876 ft 404 kts 169°
2026-05-07 15:00 59.53467 11.84243 21373 ft 407 kts 169°
2026-05-07 15:00 59.50731 11.85787 21883 ft 411 kts 169°
2026-05-07 15:00 59.47968 11.87330 22399 ft 414 kts 169°
2026-05-07 15:00 59.45184 11.88876 22878 ft 418 kts 169°
2026-05-07 15:01 59.42375 11.90452 23345 ft 421 kts 169°
2026-05-07 15:01 59.39548 11.92036 23787 ft 425 kts 169°
2026-05-07 15:01 59.36696 11.93635 24176 ft 428 kts 169°
2026-05-07 15:01 59.33809 11.95006 24519 ft 425 kts 177°
2026-05-07 15:02 59.30879 11.95476 24914 ft 420 kts 186°
2026-05-07 15:02 59.27966 11.95232 25301 ft 419 kts 189°
2026-05-07 15:02 59.25048 11.94880 25670 ft 421 kts 189°
2026-05-07 15:02 59.22109 11.94545 26030 ft 424 kts 189°
2026-05-07 15:03 59.19155 11.94235 26379 ft 427 kts 189°
2026-05-07 15:03 59.16182 11.93919 26731 ft 429 kts 189°
2026-05-07 15:03 59.13197 11.93581 27074 ft 431 kts 189°
2026-05-07 15:03 59.10194 11.93250 27414 ft 434 kts 189°
2026-05-07 15:04 59.07172 11.92936 27745 ft 436 kts 189°
2026-05-07 15:04 59.04136 11.92619 28035 ft 438 kts 189°
2026-05-07 15:04 59.01087 11.92289 28362 ft 440 kts 189°
2026-05-07 15:04 58.98017 11.91957 28673 ft 443 kts 189°
2026-05-07 15:05 58.94935 11.91627 28980 ft 445 kts 189°
2026-05-07 15:05 58.91840 11.91285 29279 ft 447 kts 189°
2026-05-07 15:05 58.88730 11.90938 29555 ft 449 kts 189°
2026-05-07 15:05 58.85605 11.90610 29824 ft 451 kts 189°
2026-05-07 15:06 58.82464 11.90311 30095 ft 454 kts 187°
2026-05-07 15:06 58.79279 11.90597 30330 ft 463 kts 179°
2026-05-07 15:06 58.76079 11.91473 30530 ft 466 kts 176°
2026-05-07 15:06 58.72866 11.92378 30758 ft 467 kts 177°
2026-05-07 15:07 58.69643 11.93250 30982 ft 469 kts 177°
2026-05-07 15:07 58.66414 11.94126 31273 ft 468 kts 177°
2026-05-07 15:07 58.63190 11.95003 31570 ft 468 kts 177°
2026-05-07 15:07 58.59968 11.95887 31864 ft 467 kts 177°
2026-05-07 15:08 58.56750 11.96750 32166 ft 467 kts 177°
2026-05-07 15:08 58.53535 11.97606 32459 ft 466 kts 177°
2026-05-07 15:08 58.50324 11.98468 32754 ft 466 kts 177°
2026-05-07 15:08 58.47115 11.99342 33033 ft 466 kts 177°
2026-05-07 15:09 58.43907 12.00214 33293 ft 465 kts 176°
2026-05-07 15:09 58.40704 12.01077 33572 ft 465 kts 176°
2026-05-07 15:09 58.37500 12.01929 33844 ft 464 kts 176°
2026-05-07 15:09 58.34303 12.02774 34119 ft 464 kts 176°
2026-05-07 15:10 58.31103 12.03620 34358 ft 464 kts 176°
2026-05-07 15:10 58.27910 12.04468 34585 ft 463 kts 176°
2026-05-07 15:10 58.24737 12.05578 34829 ft 466 kts 169°
2026-05-07 15:10 58.21658 12.07551 35068 ft 469 kts 161°
2026-05-07 15:11 58.18658 12.09977 35285 ft 469 kts 160°
2026-05-07 15:11 58.15667 12.12414 35509 ft 468 kts 160°
2026-05-07 15:11 58.12676 12.14837 35736 ft 467 kts 160°
2026-05-07 15:11 58.09693 12.17252 35973 ft 466 kts 160°
2026-05-07 15:12 58.06715 12.19645 36194 ft 465 kts 161°
2026-05-07 15:12 58.03780 12.21974 36420 ft 464 kts 161°
2026-05-07 15:12 58.00809 12.24328 36641 ft 463 kts 161°
2026-05-07 15:12 57.97848 12.26688 36859 ft 462 kts 161°
2026-05-07 15:13 57.94893 12.29040 37037 ft 461 kts 161°
2026-05-07 15:13 57.91939 12.31383 37090 ft 460 kts 161°
2026-05-07 15:13 57.86045 12.36046 37077 ft 459 kts 161°
2026-05-07 15:14 57.80164 12.40680 37087 ft 458 kts 160°
2026-05-07 15:14 57.74282 12.45315 37084 ft 458 kts 160°
2026-05-07 15:15 57.68403 12.49929 37086 ft 458 kts 161°
2026-05-07 15:15 57.62513 12.54516 37109 ft 459 kts 161°
2026-05-07 15:16 57.56622 12.59115 37094 ft 459 kts 160°
2026-05-07 15:16 57.50720 12.63676 37108 ft 459 kts 160°
2026-05-07 15:17 57.44814 12.68234 37112 ft 459 kts 160°
2026-05-07 15:17 57.38907 12.72767 37122 ft 459 kts 160°
2026-05-07 15:18 57.33003 12.77320 37109 ft 460 kts 160°
2026-05-07 15:18 57.27091 12.81833 37097 ft 460 kts 160°
2026-05-07 15:19 57.21181 12.86327 37110 ft 459 kts 160°
2026-05-07 15:19 57.15271 12.90813 37107 ft 459 kts 160°
2026-05-07 15:20 57.09370 12.95311 37112 ft 459 kts 160°
2026-05-07 15:20 57.03501 12.99739 37113 ft 459 kts 160°
2026-05-07 15:21 56.97587 13.04166 37115 ft 459 kts 160°
2026-05-07 15:21 56.91683 13.08584 37128 ft 458 kts 160°
2026-05-07 15:22 56.85783 13.12983 37129 ft 458 kts 160°
2026-05-07 15:22 56.79892 13.17368 37126 ft 457 kts 160°
2026-05-07 15:23 56.73999 13.21731 37124 ft 457 kts 160°
2026-05-07 15:23 56.68108 13.26086 37123 ft 457 kts 160°
2026-05-07 15:24 56.62215 13.30413 37125 ft 456 kts 160°
2026-05-07 15:24 56.56331 13.34734 37121 ft 456 kts 160°
2026-05-07 15:25 56.50448 13.39043 37127 ft 456 kts 160°
2026-05-07 15:25 56.44570 13.43331 37127 ft 455 kts 160°
2026-05-07 15:26 56.38694 13.47585 37118 ft 455 kts 160°
2026-05-07 15:26 56.32826 13.51834 37130 ft 454 kts 160°
2026-05-07 15:27 56.26998 13.56036 37129 ft 454 kts 160°
2026-05-07 15:27 56.21143 13.60253 37117 ft 453 kts 160°
2026-05-07 15:28 56.15247 13.64473 37119 ft 453 kts 160°
2026-05-07 15:28 56.09430 13.68627 37117 ft 453 kts 160°
2026-05-07 15:29 56.03580 13.72786 37123 ft 452 kts 160°
2026-05-07 15:29 55.97743 13.76949 37114 ft 451 kts 160°
2026-05-07 15:30 55.91913 13.81076 37121 ft 450 kts 160°
2026-05-07 15:30 55.86083 13.85157 37123 ft 450 kts 160°
2026-05-07 15:31 55.81207 13.88582 37126 ft 450 kts 160°
2026-05-07 15:31 55.75388 13.92668 37116 ft 449 kts 160°
2026-05-07 15:32 55.69572 13.96729 37127 ft 449 kts 160°
2026-05-07 15:32 55.63797 14.00758 37135 ft 449 kts 160°
2026-05-07 15:33 55.57983 14.04797 37130 ft 449 kts 160°
2026-05-07 15:33 55.52171 14.08823 37129 ft 449 kts 161°
2026-05-07 15:34 55.46354 14.12816 37134 ft 448 kts 161°
2026-05-07 15:34 55.40493 14.16535 37142 ft 447 kts 163°
2026-05-07 15:35 55.34609 14.20099 37143 ft 447 kts 163°
2026-05-07 15:35 55.28735 14.23662 37142 ft 447 kts 163°
2026-05-07 15:36 55.22854 14.27206 37144 ft 447 kts 163°
2026-05-07 15:36 55.16984 14.30748 37142 ft 446 kts 163°
2026-05-07 15:37 55.14049 14.32507 36914 ft 444 kts 163°
2026-05-07 15:37 55.11120 14.34264 36127 ft 447 kts 163°
2026-05-07 15:37 55.08170 14.36022 35387 ft 448 kts 162°
2026-05-07 15:37 55.05225 14.37789 34746 ft 446 kts 162°
2026-05-07 15:38 55.02305 14.39534 34259 ft 441 kts 162°
2026-05-07 15:38 54.99449 14.41231 33653 ft 437 kts 162°
2026-05-07 15:38 54.96592 14.42934 33159 ft 431 kts 162°
2026-05-07 15:38 54.93774 14.44602 32626 ft 425 kts 163°
2026-05-07 15:39 54.90990 14.46259 32140 ft 420 kts 163°
2026-05-07 15:39 54.88248 14.47900 31636 ft 414 kts 163°
2026-05-07 15:39 54.85535 14.49501 31134 ft 409 kts 163°
2026-05-07 15:39 54.82852 14.51080 30659 ft 405 kts 163°
2026-05-07 15:40 54.80201 14.52647 30162 ft 401 kts 163°
2026-05-07 15:40 54.77574 14.54190 29622 ft 397 kts 163°
2026-05-07 15:40 54.74977 14.55715 29167 ft 391 kts 163°
2026-05-07 15:40 54.72414 14.57222 28694 ft 387 kts 164°
2026-05-07 15:41 54.69873 14.58706 28231 ft 384 kts 163°
2026-05-07 15:41 54.67354 14.60183 27749 ft 381 kts 163°
2026-05-07 15:41 54.64855 14.61655 27286 ft 378 kts 163°
2026-05-07 15:41 54.62371 14.63111 26829 ft 376 kts 163°
2026-05-07 15:42 54.59898 14.64546 26374 ft 374 kts 163°
2026-05-07 15:42 54.57424 14.65979 25910 ft 383 kts 163°
2026-05-07 15:42 54.54806 14.67498 25420 ft 410 kts 163°
2026-05-07 15:42 54.52069 14.69096 24893 ft 419 kts 163°
2026-05-07 15:43 54.49298 14.70700 24384 ft 421 kts 163°
2026-05-07 15:43 54.46536 14.72312 23739 ft 418 kts 163°
2026-05-07 15:43 54.43795 14.73907 22989 ft 415 kts 163°
2026-05-07 15:43 54.41072 14.75479 22282 ft 411 kts 163°
2026-05-07 15:44 54.38376 14.77038 21630 ft 407 kts 163°
2026-05-07 15:44 54.35699 14.78584 20775 ft 408 kts 163°
2026-05-07 15:44 54.32999 14.80132 19988 ft 408 kts 162°
2026-05-07 15:44 54.30312 14.81675 19323 ft 406 kts 162°
2026-05-07 15:45 54.27648 14.83212 18707 ft 402 kts 162°
2026-05-07 15:45 54.25005 14.84726 18073 ft 399 kts 162°
2026-05-07 15:45 54.22381 14.86220 17398 ft 396 kts 162°
2026-05-07 15:45 54.19783 14.87702 16745 ft 392 kts 162°
2026-05-07 15:46 54.14648 14.90646 15423 ft 386 kts 162°
2026-05-07 15:46 54.12114 14.92096 14768 ft 383 kts 162°
2026-05-07 15:46 54.09602 14.93524 14102 ft 380 kts 162°
2026-05-07 15:47 54.07101 14.94937 13383 ft 376 kts 162°
2026-05-07 15:47 54.04631 14.96332 12707 ft 372 kts 162°
2026-05-07 15:47 54.02192 14.97718 12021 ft 368 kts 162°
2026-05-07 15:47 53.99777 14.99083 11359 ft 364 kts 162°
2026-05-07 15:48 53.97410 15.00416 11051 ft 350 kts 162°
2026-05-07 15:48 53.95161 15.01684 10916 ft 332 kts 162°
2026-05-07 15:48 53.93024 15.02899 10788 ft 316 kts 161°
2026-05-07 15:48 53.90983 15.04056 10664 ft 302 kts 162°
2026-05-07 15:49 53.89018 15.05169 10418 ft 294 kts 162°
2026-05-07 15:49 53.87088 15.06262 10051 ft 291 kts 162°
2026-05-07 15:49 53.85179 15.07330 9626 ft 289 kts 162°
2026-05-07 15:49 53.83268 15.08395 9192 ft 288 kts 161°
2026-05-07 15:50 53.81366 15.09454 8753 ft 287 kts 161°
2026-05-07 15:50 53.79489 15.10498 8046 ft 283 kts 161°
2026-05-07 15:50 53.77621 15.11551 7194 ft 284 kts 160°
2026-05-07 15:50 53.75719 15.12621 6212 ft 289 kts 160°
2026-05-07 15:51 53.73788 15.13508 5460 ft 284 kts 166°
2026-05-07 15:51 53.71892 15.14122 4871 ft 275 kts 175°
2026-05-07 15:51 53.70015 15.13775 4175 ft 271 kts 194°
2026-05-07 15:51 53.68188 15.12979 3544 ft 274 kts 191°
2026-05-07 15:52 53.66338 15.12254 3213 ft 270 kts 191°
2026-05-07 15:52 53.64535 15.11539 3015 ft 262 kts 191°
2026-05-07 15:52 53.62797 15.10852 2878 ft 252 kts 191°
2026-05-07 15:52 53.61129 15.10194 2714 ft 241 kts 191°
2026-05-07 15:53 53.59525 15.09547 2506 ft 232 kts 191°
2026-05-07 15:53 53.57992 15.08937 2326 ft 219 kts 191°
2026-05-07 15:53 53.56634 15.08141 2186 ft 196 kts 210°
2026-05-07 15:53 53.55641 15.06729 2048 ft 181 kts 225°
2026-05-07 15:54 53.54794 15.05263 1905 ft 171 kts 229°
2026-05-07 15:54 53.54046 15.03768 1691 ft 164 kts 243°
2026-05-07 15:54 53.53715 15.01995 1558 ft 157 kts 269°
2026-05-07 15:54 53.53814 15.00209 1426 ft 152 kts 291°
2026-05-07 15:55 53.54235 14.98618 1275 ft 147 kts 307°
2026-05-07 15:55 53.54842 14.97256 1089 ft 146 kts 315°
2026-05-07 15:55 53.55505 14.95972 881 ft 145 kts 315°
2026-05-07 15:55 53.56162 14.94699 680 ft 143 kts 315°
2026-05-07 15:56 53.56812 14.93440 481 ft 142 kts 314°
2026-05-07 15:56 53.57466 14.92175 292 ft 143 kts 313°
2026-05-07 15:56 53.58110 14.90924 156 ft 132 kts 315°
2026-05-07 15:56 53.58618 14.89947 142 ft 87 kts 310°
2026-05-07 15:57 53.58898 14.89400 142 ft 37 kts 311°
2026-05-07 15:57 53.58988 14.89227 143 ft 15 kts 311°
2026-05-07 15:57 53.59057 14.89117 142 ft 6 kts 345°
2026-05-07 15:57 53.59100 14.89159 142 ft 9 kts 41°
2026-05-07 15:58 53.59149 14.89230 142 ft 9 kts 41°
2026-05-07 15:58 53.59190 14.89260 142 ft 5 kts 334°
2026-05-07 15:58 53.59218 14.89202 142 ft 8 kts 314°
2026-05-07 15:58 53.59256 14.89221 142 ft 7 kts 40°
2026-05-07 15:59 53.59281 14.89257 142 ft 0 kts 40°
2026-05-07 16:00 53.59284 14.89262 142 ft 0 kts 40°
2026-05-07 16:00 53.59286 14.89265 142 ft 2 kts 40°
2026-05-07 16:00 53.59294 14.89275 142 ft 0 kts 40°